Location: Hac?musa Deresi
(39.1694°N, 32.2508°E)
Time: 11:06:29
(UTC+00:00)

Cosmos 1300 Rocket - Pass Details

Date: 22 April 2026
Orbit: 596 x 617 km, 82.5° (Epoch: 20 May)

Event Time Altitude Azimuth Distance (km) Brightness Sun altitude
Exits shadow 18:11:24 33° 93° (E) 1,017 4.2 -17.7°
Maximum altitude 18:11:28 33° 91° (E) 1,017 4.2 -17.7°
Drops below altitude 10° 18:15:19 10° 27° (NNE) 1,943 6.2 -18.3°
Sets 18:17:41 0° 18° (NNE) 2,853 7.2 -18.7°
